Wind_Speed
40 40 41 41 42 43 44 45 47 47 47 47 47 48 49 49 49 49 49 49 49 48 48 48 48 46 45 44 44 44 44 43 43 42 41 40 38 37
41 41 42 42 44 45 46 47 48 48 47 47 48 49 50 50 50 50 50 49 48 48 47 47 46 44 43 43 43 43 43 42 41 39 38 37 37 36
42 43 43 44 45 46 47 48 48 48 47 47 48 49 49 50 49 49 48 48 48 48 48 46 44 42 42 42 42 42 41 40 39 37 36 35 35 36
42 44 45 46 46 47 48 48 48 49 48 48 48 49 49 49 48 48 48 47 48 48 46 45 43 42 42 41 40 39 39 38 37 36 35 35 34 34
44 45 46 46 47 47 48 48 48 48 48 48 48 49 48 48 47 47 47 47 47 47 45 43 42 41 40 39 38 38 37 36 36 35 34 34 34 34
45 45 46 47 47 47 47 47 48 48 48 48 47 47 46 46 46 46 46 46 46 45 43 41 41 40 38 37 36 36 36 35 35 34 33 32 32 31
45 46 47 47 47 47 47 48 48 48 47 47 46 45 45 45 45 45 45 45 44 42 41 40 39 37 36 35 35 35 35 33 32 31 30 30 29 28
45 46 47 47 47 47 46 47 47 46 46 46 45 44 44 44 44 44 44 43 41 40 39 38 37 36 35 34 34 34 33 32 30 29 28 27 27 26
45 46 46 46 45 44 44 45 45 45 45 45 44 44 43 43 43 43 43 42 39 38 37 35 35 34 33 33 33 33 32 30 28 27 26 26 25 24
45 45 45 44 44 43 43 44 44 44 44 43 42 42 42 42 42 42 41 39 36 35 35 34 33 32 32 32 31 31 29 27 26 25 25 24 23 22
43 43 43 43 42 42 42 42 42 42 42 41 40 40 40 41 41 40 38 36 34 33 33 32 31 29 29 29 28 28 28 26 25 24 23 22 21 19
42 42 41 41 41 41 41 41 41 40 40 38 38 38 39 39 38 36 34 33 32 31 31 30 28 27 27 27 27 27 26 25 24 23 22 20 18 17
40 39 38 38 38 39 39 39 39 39 38 37 37 37 37 36 35 34 32 31 30 29 28 26 25 25 26 26 26 25 25 23 23 23 22 20 19 18
38 37 37 36 36 36 37 37 38 37 36 36 36 35 34 33 32 31 29 29 29 28 25 24 24 24 24 24 24 24 23 22 22 22 21 20 18 18
36 35 34 34 34 35 35 36 36 35 35 34 34 33 32 31 30 28 27 27 26 25 23 23 23 23 23 23 22 22 22 21 21 21 20 18 17 16
35 34 34 33 34 34 34 35 35 33 32 32 32 31 30 29 28 26 25 24 23 21 21 21 22 22 21 20 20 21 21 20 20 19 19 17 15 14
34 34 34 33 33 33 33 34 33 31 30 29 29 28 27 27 26 25 23 22 21 20 20 20 20 20 20 19 19 19 20 19 18 18 16 15 14 13
34 33 33 32 32 32 31 31 29 28 28 27 26 25 25 24 23 22 21 20 20 19 19 19 19 19 18 18 18 18 19 18 18 17 15 14 13 12
33 33 32 31 31 30 30 29 27 26 25 24 24 24 23 22 21 20 19 19 18 17 17 17 17 17 16 16 17 17 17 17 16 15 13 12 12 11
32 31 31 30 29 28 27 26 25 24 23 22 23 22 22 21 19 18 17 17 16 16 16 16 16 16 16 16 16 16 16 15 14 13 11 10 11 11
29 30 29 28 27 26 25 25 24 23 22 21 21 20 19 18 17 16 16 15 14 15 14 14 14 14 14 15 15 14 14 13 12 11 11 11 10 8
28 27 26 25 24 24 23 23 22 21 20 20 19 18 17 15 15 14 14 13 13 14 14 13 13 13 13 13 14 14 13 12 11 11 11 11 9 7
25 25 24 23 23 23 22 21 20 20 19 18 17 17 15 14 14 13 13 12 12 12 12 12 12 12 12 13 13 13 11 10 10 9 10 10 9 8
Wind_Direction
286 288 290 292 295 296 299 301 303 304 306 305 305 306 308 310 311 311 312 313 312 312 311 311 310 308 306 306 305 305 304 303 302 301 299 298 294 292
284 286 289 292 294 296 298 301 303 304 305 305 306 307 308 309 311 311 312 312 312 313 312 312 311 309 309 308 307 307 306 305 304 302 300 297 295 292
284 286 289 292 294 296 297 300 302 303 304 305 306 307 308 309 310 311 312 312 313 313 313 313 312 310 311 310 310 309 308 307 306 303 302 299 297 294
284 287 289 292 294 295 297 299 300 302 304 305 306 307 307 309 310 311 311 312 312 313 314 314 313 312 312 312 311 310 310 309 307 304 303 302 300 297
284 287 289 291 293 295 297 298 300 302 303 304 306 306 307 308 309 311 312 312 314 314 314 314 315 314 313 313 312 312 312 311 309 307 305 303 302 299
284 287 289 291 292 294 296 297 299 301 303 305 306 306 307 308 310 311 312 312 314 314 314 314 315 315 315 314 313 314 313 312 311 309 308 307 306 303
284 286 289 290 291 293 295 297 299 301 302 304 305 306 308 309 310 311 312 313 313 313 313 314 315 315 315 315 315 315 315 314 313 313 312 310 309 306
285 286 287 289 291 293 295 297 299 300 302 304 305 306 308 309 311 311 312 313 313 312 313 314 315 316 316 316 317 318 319 318 317 315 314 313 312 310
285 286 287 289 290 292 294 296 298 300 302 303 304 306 308 309 310 311 312 314 314 313 313 315 316 317 317 318 319 321 321 321 321 320 319 317 315 312
285 286 287 288 290 291 293 296 297 299 300 302 304 305 307 308 310 312 313 314 314 314 315 316 316 317 318 321 323 324 325 325 324 323 322 321 318 314
285 286 287 289 289 291 293 295 296 298 300 301 302 304 305 307 310 312 313 313 313 314 315 316 317 318 320 323 325 327 329 328 327 326 326 325 323 320
285 286 288 289 289 291 292 294 295 296 298 299 301 303 305 308 310 312 314 313 313 313 315 316 318 320 322 325 327 329 331 331 329 329 329 329 329 327
286 286 288 289 290 291 293 295 295 295 296 298 300 303 306 308 309 311 312 314 315 316 317 318 320 322 324 326 329 331 332 334 332 332 331 329 329 329
285 287 288 289 292 294 296 297 296 296 296 297 300 302 305 306 308 309 310 312 315 318 320 321 323 325 327 328 330 332 333 335 336 335 334 331 329 329
284 286 287 290 292 294 297 299 299 298 297 298 300 301 304 305 307 308 309 311 314 318 320 322 324 327 328 330 333 335 335 334 335 337 336 333 331 331
283 284 286 289 291 294 297 299 300 299 298 299 300 301 304 305 306 307 307 309 313 317 320 322 326 328 330 331 335 336 336 336 339 340 340 339 338 337
282 283 285 287 290 293 296 299 299 298 298 300 301 303 305 305 306 306 306 307 311 315 318 321 325 329 330 331 334 337 338 339 341 344 346 346 346 347
279 281 284 287 289 293 295 297 297 296 298 300 302 304 304 305 308 307 306 306 309 313 317 321 323 327 330 331 333 335 337 340 341 342 344 347 353 359
277 279 282 285 287 291 293 294 294 295 298 300 302 303 304 306 306 306 306 305 307 312 318 321 322 324 328 330 333 334 338 342 345 346 347 350 355 0
275 277 279 282 285 288 289 290 292 295 297 298 301 302 303 304 304 305 307 309 311 314 317 319 322 325 328 332 334 337 339 343 347 348 350 353 355 360
274 276 278 280 282 284 286 288 290 291 294 295 298 299 301 303 304 305 307 309 312 316 316 318 322 326 329 332 336 341 343 345 348 352 353 354 357 6
274 276 277 280 281 281 282 285 287 288 291 295 297 299 299 301 303 306 309 310 313 316 318 318 319 323 327 331 335 338 342 345 350 355 358 4 14 26
273 276 277 278 280 280 281 282 285 287 289 292 295 296 297 299 303 306 309 311 313 316 318 321 324 328 330 333 336 341 348 352 357 3 8 14 23 32
Height
5739 5736 5733 5730 5727 5722 5718 5713 5709 5704 5700 5693 5686 5680 5673 5666 5660 5652 5646 5638 5631 5623 5616 5608 5601 5593 5587 5580 5574 5568 5563 5557 5552 5546 5541 5536 5532 5529
5729 5727 5724 5721 5717 5713 5708 5703 5698 5693 5689 5683 5677 5670 5663 5657 5649 5642 5635 5628 5620 5613 5605 5597 5590 5583 5576 5570 5564 5558 5552 5546 5541 5535 5531 5526 5522 5518
5720 5717 5714 5711 5707 5703 5698 5694 5688 5683 5678 5673 5667 5660 5653 5647 5640 5632 5625 5618 5611 5603 5595 5587 5580 5573 5567 5560 5554 5548 5542 5536 5531 5526 5521 5516 5512 5509
5710 5707 5704 5701 5697 5693 5688 5683 5678 5673 5668 5663 5657 5650 5643 5636 5630 5623 5615 5608 5601 5593 5586 5578 5571 5564 5557 5551 5545 5539 5533 5527 5522 5516 5512 5507 5503 5499
5700 5697 5694 5690 5686 5682 5678 5673 5668 5663 5657 5653 5647 5640 5634 5627 5620 5613 5606 5599 5591 5583 5576 5569 5562 5556 5549 5543 5536 5530 5524 5519 5513 5508 5503 5498 5494 5489
5689 5686 5683 5679 5676 5672 5667 5663 5658 5653 5647 5642 5637 5631 5624 5618 5611 5605 5598 5591 5583 5575 5568 5561 5554 5548 5542 5535 5529 5523 5516 5510 5505 5499 5494 5490 5485 5481
5678 5675 5672 5668 5665 5661 5657 5652 5648 5643 5637 5632 5627 5621 5615 5609 5602 5596 5589 5582 5575 5567 5560 5554 5547 5541 5534 5528 5522 5515 5509 5503 5497 5492 5487 5482 5477 5473
5667 5664 5661 5658 5654 5650 5646 5641 5637 5632 5627 5622 5617 5612 5606 5600 5593 5587 5580 5574 5568 5561 5553 5546 5540 5534 5527 5522 5515 5509 5502 5496 5491 5485 5480 5475 5471 5466
5656 5653 5650 5646 5643 5639 5636 5631 5627 5622 5617 5613 5608 5602 5597 5592 5585 5579 5571 5564 5558 5552 5546 5540 5533 5527 5521 5515 5509 5503 5496 5490 5485 5480 5475 5470 5465 5461
5645 5642 5639 5636 5632 5629 5626 5622 5617 5613 5609 5604 5599 5594 5588 5582 5576 5570 5563 5557 5551 5545 5539 5533 5527 5521 5515 5509 5503 5497 5491 5485 5480 5475 5470 5465 5461 5457
5634 5631 5628 5625 5622 5619 5616 5613 5609 5604 5599 5595 5590 5585 5579 5574 5568 5562 5556 5550 5545 5540 5533 5527 5522 5516 5510 5505 5499 5493 5487 5481 5476 5471 5466 5461 5457 5453
5624 5621 5618 5615 5612 5609 5606 5603 5599 5595 5591 5586 5582 5577 5572 5566 5561 5555 5549 5544 5539 5534 5528 5523 5517 5511 5507 5502 5496 5490 5484 5478 5473 5468 5463 5458 5454 5451
5613 5611 5608 5605 5602 5599 5596 5593 5589 5586 5582 5578 5574 5569 5564 5559 5554 5549 5543 5538 5533 5528 5523 5518 5512 5507 5502 5498 5493 5487 5481 5476 5470 5465 5460 5456 5452 5448
5604 5602 5599 5597 5594 5591 5587 5584 5580 5577 5573 5570 5566 5562 5557 5552 5547 5543 5538 5533 5528 5523 5518 5513 5508 5503 5498 5494 5489 5484 5479 5473 5468 5463 5458 5454 5450 5446
5595 5593 5590 5588 5585 5582 5579 5576 5572 5569 5566 5562 5558 5555 5550 5545 5541 5537 5533 5528 5523 5519 5514 5509 5505 5500 5495 5490 5486 5481 5477 5472 5466 5461 5457 5452 5449 5445
5585 5584 5582 5579 5577 5574 5571 5568 5565 5561 5558 5555 5551 5547 5543 5539 5535 5531 5528 5524 5520 5515 5511 5506 5502 5497 5493 5488 5483 5479 5474 5470 5465 5460 5455 5451 5448 5444
5576 5575 5573 5571 5569 5566 5564 5560 5557 5554 5551 5548 5544 5541 5537 5534 5530 5526 5523 5519 5516 5512 5508 5504 5499 5495 5490 5486 5482 5477 5473 5468 5464 5459 5455 5451 5448 5444
5566 5565 5564 5562 5560 5558 5556 5553 5550 5547 5545 5542 5538 5535 5532 5529 5525 5521 5518 5515 5512 5509 5505 5501 5497 5493 5489 5485 5481 5476 5471 5467 5463 5458 5454 5451 5448 5445
5556 5556 5555 5554 5552 5550 5548 5546 5543 5541 5538 5535 5533 5530 5527 5524 5520 5517 5514 5511 5508 5505 5502 5498 5495 5491 5488 5484 5480 5475 5470 5466 5462 5458 5454 5451 5448 5445
5547 5546 5546 5545 5543 5542 5540 5538 5536 5534 5532 5530 5527 5525 5522 5519 5516 5513 5511 5508 5505 5502 5499 5496 5493 5489 5486 5482 5478 5474 5469 5465 5461 5458 5454 5451 5448 5445
5538 5537 5537 5536 5535 5534 5533 5532 5530 5528 5527 5524 5522 5520 5517 5515 5512 5510 5507 5505 5502 5500 5497 5494 5491 5488 5484 5480 5477 5473 5469 5464 5460 5457 5454 5451 5449 5446
5529 5529 5529 5528 5527 5527 5526 5525 5524 5522 5521 5519 5517 5515 5513 5511 5508 5506 5504 5502 5500 5497 5494 5491 5489 5486 5482 5479 5475 5472 5468 5464 5461 5457 5454 5451 5448 5446
5522 5521 5521 5521 5520 5520 5519 5518 5517 5516 5515 5514 5512 5511 5509 5507 5505 5503 5501 5499 5497 5495 5492 5489 5486 5483 5480 5477 5474 5471 5467 5464 5461 5458 5455 5452 5449 5447